[[{"header":{"parameterUnit":"m.s-1","parameterCategory":1,"la1":30.2992,"la2":30.254,"lo1":-89.0895,"lo2":-89.0443,"dy":0.0025,"dx":0.0025,"nx":19,"ny":19,"refTime":"2026-04-19T21:00:00:Z","depth":0,"parameterNumber":2,"parameterNumberName":"U-component_of_WINDS"},"data":[0,0,0,-3.0383,-3.0387,-3.0545,-3.0545,-3.0777,-3.0779,0,0,0,0,0,0,0,0,0,0,0,-3.0356,-3.0358,-3.0383,-3.0387,-3.0545,-3.0545,-3.0776,-3.0779,0,0,0,0,0,0,0,0,0,0,0,-3.0355,-3.0357,-3.036,-3.0388,-3.0545,-3.0545,-3.0776,-3.0646,0,0,0,0,0,0,0,0,0,0,-3.0487,-3.0481,-3.0357,-3.036,-3.0389,-3.0545,-3.0545,-3.0639,-3.0654,-3.0718,0,-3.0782,0,-3.0785,-3.0796,-3.0797,0,0,0,-3.0372,-3.0469,-3.0494,-3.0361,-3.0391,-3.0544,-3.0469,-3.0647,-3.0664,-3.0738,-3.0785,-3.0793,-3.0788,-3.0798,-3.0799,-3.1224,-3.1226,0,0,-3.0364,-3.0394,-3.0483,-3.0506,-3.0485,-3.0465,-3.0475,-3.0657,-3.0709,-3.0786,-3.0798,-3.0792,-3.08,-3.0802,-3.1221,-3.1224,0,0,0,-3.0349,-3.0389,-3.0409,-3.0498,-3.0524,-3.0469,-3.0481,-3.0701,-3.0705,-3.08,-3.0795,-3.0801,-3.0805,-3.1218,-3.1222,-3.1384,0,0,0,-3.0343,-3.038,-3.0406,-3.0426,-3.0521,-3.0615,-3.0522,-3.0692,-3.0712,-3.0794,-3.0801,-3.0807,-3.1215,-3.122,-3.1373,-3.1455,0,0,0,-3.0339,-3.0379,-3.0409,-3.0427,-3.0496,-3.0611,-3.0625,-3.0696,-3.071,-3.0798,-3.0808,-3.1213,-3.1219,-3.1363,-3.1439,-3.1575,0,0,0,-3.0343,-3.055,-3.0412,-3.0641,-3.0495,-3.0711,-3.0623,-3.0782,-3.0877,-3.0803,-3.1216,-3.1222,-3.136,-3.1429,-3.1565,-3.1694,-3.1751,0,0,-3.0621,-3.0585,-3.0717,-3.0598,-3.0846,-3.0684,-3.0955,-3.1012,-3.0992,-3.1147,-3.1157,-3.1377,-3.1438,-3.1573,-3.2062,-3.2108,0,0,0,-3.0815,-3.0911,-3.097,-3.1062,-3.1112,-3.1161,-3.1174,-3.1195,-3.1325,-3.1079,-3.1462,-3.1498,-3.1575,-3.1635,-3.1674,-3.1738,-3.1251,-3.1251,-3.125,-3.1252,-3.1216,-3.1433,-3.1416,-3.1507,-3.1518,-3.1588,-3.1618,-3.1555,-3.1646,-3.1692,-3.1993,-3.2065,-3.2094,-3.2161,-3.1758,-3.1759,-3.1759,-3.176,-3.1655,-3.1784,-3.1696,-3.1875,-3.1836,-3.1985,-3.2004,-3.1954,-3.2086,-3.1956,-3.2023,-3.1882,-3.2145,-3.2202,-3.1771,-3.1769,-3.1768,-3.1767,-3.1766,-3.1935,-3.1991,-3.2014,-3.2144,-3.2248,-3.2224,-3.2355,-3.2315,-3.2277,-3.2343,-3.2386,-3.2383,-3.2374,-3.2367,-3.2368,-3.2369,-3.237,-3.2371,-3.2371,-3.2216,-3.2237,-3.2354,-3.2425,-3.2479,-3.2544,-3.2559,-3.261,-3.2656,-3.2616,-3.2616,-3.2544,-3.2178,-3.2087,-3.2387,-3.2385,-3.2383,-3.2381,-3.238,-3.2635,-3.2534,-3.2714,-3.2768,-3.2848,-3.2953,-3.2901,-3.301,-3.3046,-3.3112,-3.3026,-3.2763,-3.2722,-3.2691,-3.2614,-3.3034,-3.3034,-3.3034,-3.3034,-3.287,-3.2846,-3.3021,-3.311,-3.3193,-3.3164,-3.3367,-3.3381,-3.3379,-3.3399,-3.3333,-3.3228,-3.3199,-3.3175,-3.3134,-3.3062,-3.3585,-3.3586,-3.3586,-3.3125,-3.3107,-3.3288,-3.3286,-3.3346,-3.3398,-3.3587,-3.3692,-3.3669,-3.3608,-3.3414,-3.339,-3.3221,-3.3169,-3.3101,-3.3038,-3.2905,0,0]},{"header":{"parameterUnit":"m.s-1","parameterCategory":1,"la1":30.2992,"la2":30.254,"lo1":-89.0895,"lo2":-89.0443,"dy":0.0025,"dx":0.0025,"nx":19,"ny":19,"refTime":"2026-04-19T21:00:00:Z","depth":0,"parameterNumber":3,"parameterNumberName":"V-component_of_WINDS"},"data":[0,0,0,-2.072,-2.0722,-2.0818,-2.0818,-2.0928,-2.0928,0,0,0,0,0,0,0,0,0,0,0,-2.0686,-2.0687,-2.072,-2.0722,-2.0818,-2.0818,-2.0927,-2.0928,0,0,0,0,0,0,0,0,0,0,0,-2.0686,-2.0687,-2.0687,-2.0722,-2.0818,-2.0818,-2.0927,-2.0859,0,0,0,0,0,0,0,0,0,0,-2.0768,-2.0732,-2.0686,-2.0687,-2.0723,-2.0818,-2.0818,-2.0856,-2.0863,-2.0879,0,-2.0895,0,-2.0914,-2.0935,-2.0936,0,0,0,-2.0725,-2.0726,-2.0757,-2.0688,-2.0724,-2.0817,-2.0775,-2.086,-2.0868,-2.0889,-2.0897,-2.0901,-2.0915,-2.0936,-2.0936,-2.1025,-2.1025,0,0,-2.072,-2.07,-2.0751,-2.0762,-2.075,-2.0772,-2.0778,-2.0865,-2.0871,-2.0897,-2.0904,-2.0917,-2.0936,-2.0937,-2.1024,-2.1025,0,0,0,-2.0702,-2.0696,-2.0725,-2.0757,-2.0776,-2.0775,-2.0782,-2.0867,-2.0878,-2.0905,-2.0918,-2.0937,-2.0938,-2.1024,-2.1024,-2.1019,0,0,0,-2.0699,-2.0686,-2.0723,-2.0711,-2.0774,-2.0823,-2.0782,-2.0872,-2.0883,-2.0918,-2.0937,-2.0939,-2.1024,-2.1024,-2.1018,-2.1019,0,0,0,-2.0682,-2.0684,-2.0697,-2.071,-2.0751,-2.0823,-2.0839,-2.0875,-2.0891,-2.0936,-2.094,-2.1024,-2.1024,-2.1018,-2.1018,-2.1035,0,0,0,-2.0656,-2.069,-2.0696,-2.0738,-2.075,-2.0819,-2.0839,-2.089,-2.0928,-2.0938,-2.1024,-2.1024,-2.1018,-2.1018,-2.1035,-2.1046,-2.1049,0,0,-2.0687,-2.0693,-2.0719,-2.0728,-2.0791,-2.0806,-2.0867,-2.0919,-2.094,-2.0994,-2.0997,-2.1018,-2.1018,-2.1035,-2.1075,-2.1077,0,0,0,-2.0722,-2.074,-2.0761,-2.0798,-2.0839,-2.0874,-2.092,-2.0938,-2.0986,-2.0965,-2.1031,-2.1031,-2.1042,-2.1048,-2.105,-2.1059,-2.1027,-2.1027,-2.1027,-2.0737,-2.0763,-2.0808,-2.0846,-2.088,-2.0926,-2.0955,-2.0988,-2.1004,-2.1019,-2.1035,-2.1056,-2.1063,-2.1064,-2.1074,-2.1044,-2.1044,-2.1044,-2.1044,-2.0783,-2.0813,-2.0834,-2.0885,-2.0911,-2.0953,-2.0998,-2.1007,-2.1048,-2.1047,-2.1057,-2.1052,-2.1066,-2.1076,-2.1043,-2.1043,-2.1043,-2.1044,-2.1044,-2.0795,-2.0814,-2.0838,-2.0892,-2.0929,-2.0966,-2.1004,-2.1027,-2.1048,-2.1059,-2.1077,-2.1077,-2.1079,-2.1066,-2.1067,-2.1067,-2.1067,-2.1067,-2.1067,-2.0797,-2.0824,-2.0855,-2.0902,-2.0927,-2.0963,-2.1009,-2.1034,-2.1066,-2.108,-2.108,-2.1093,-2.1063,-2.1055,-2.1068,-2.1068,-2.1068,-2.1068,-2.1067,-2.0832,-2.0828,-2.0876,-2.0902,-2.0957,-2.0992,-2.1021,-2.1069,-2.1093,-2.111,-2.1121,-2.1096,-2.1103,-2.1101,-2.1094,-2.1117,-2.1117,-2.1117,-2.1117,-2.0841,-2.0847,-2.0901,-2.094,-2.0981,-2.1011,-2.1061,-2.1096,-2.1131,-2.1147,-2.1147,-2.114,-2.1137,-2.1145,-2.1143,-2.1136,-2.1169,-2.1169,-2.1169,-2.0864,-2.0875,-2.0914,-2.0951,-2.0996,-2.1033,-2.108,-2.1121,-2.116,-2.1172,-2.1159,-2.1157,-2.1145,-2.1141,-2.1151,-2.1147,-2.1136,0,0]}]]